Time,TemperatureF,DewpointF,PressureIn,WindDirection,WindDirectionDegrees,WindSpeedMPH,WindSpeedGustMPH,Humidity,HourlyPrecipIn,Conditions,Clouds,dailyrainin,SoftwareType,DateUTC
2013-04-29 00:02:00,59.7,47.9,29.75,North,0,0.0,0.0,65,0.00,,,0.00,WUHU216HW,2013-04-29 05:02:00,
2013-04-29 00:07:00,59.7,47.9,29.75,North,0,0.0,0.0,63,0.00,,,0.00,WUHU216HW,2013-04-29 05:07:00,
2013-04-29 00:12:00,59.5,46.5,29.75,North,0,0.0,0.0,62,0.00,,,0.00,WUHU216HW,2013-04-29 05:12:00,
2013-04-29 00:17:00,59.3,45.9,29.75,North,0,0.0,0.0,61,0.00,,,0.00,WUHU216HW,2013-04-29 05:17:00,
2013-04-29 00:22:00,59.3,45.9,29.76,North,0,0.0,0.0,60,0.00,,,0.00,WUHU216HW,2013-04-29 05:22:00,
2013-04-29 00:27:00,59.1,45.3,29.76,North,0,0.0,0.0,60,0.00,,,0.00,WUHU216HW,2013-04-29 05:27:00,
2013-04-29 00:32:00,59.1,45.3,29.76,North,0,0.0,0.0,60,0.00,,,0.00,WUHU216HW,2013-04-29 05:32:00,
2013-04-29 00:38:00,59.1,45.3,29.76,North,0,0.0,0.0,60,0.00,,,0.00,WUHU216HW,2013-04-29 05:38:00,
2013-04-29 00:43:00,59.0,45.1,29.77,North,0,0.0,0.0,60,0.00,,,0.00,WUHU216HW,2013-04-29 05:43:00,
2013-04-29 00:48:00,59.0,45.1,29.76,North,0,0.0,0.0,60,0.00,,,0.00,WUHU216HW,2013-04-29 05:48:00,
2013-04-29 00:53:00,59.0,45.1,29.76,North,0,0.0,0.0,61,0.00,,,0.00,WUHU216HW,2013-04-29 05:53:00,
2013-04-29 00:58:00,58.8,44.9,29.76,North,0,0.0,0.0,60,0.00,,,0.00,WUHU216HW,2013-04-29 05:58:00,
2013-04-29 01:03:00,58.8,44.9,29.76,North,0,0.0,0.0,60,0.00,,,0.00,WUHU216HW,2013-04-29 06:03:00,
2013-04-29 01:08:00,59.0,45.1,29.76,North,0,0.0,0.0,60,0.00,,,0.00,WUHU216HW,2013-04-29 06:08:00,
2013-04-29 01:13:00,59.0,45.1,29.76,North,0,0.0,0.0,60,0.00,,,0.00,WUHU216HW,2013-04-29 06:13:00,
2013-04-29 01:18:00,59.0,45.1,29.76,North,0,0.0,0.0,60,0.00,,,0.00,WUHU216HW,2013-04-29 06:18:00,
2013-04-29 01:23:00,59.0,45.1,29.76,North,0,0.0,0.0,60,0.00,,,0.00,WUHU216HW,2013-04-29 06:23:00,
2013-04-29 01:28:00,59.0,45.1,29.75,North,0,0.0,0.0,59,0.00,,,0.00,WUHU216HW,2013-04-29 06:28:00,
2013-04-29 01:33:00,59.1,44.3,29.75,North,0,0.0,0.0,58,0.00,,,0.00,WUHU216HW,2013-04-29 06:33:00,
2013-04-29 01:38:00,59.3,45.0,29.75,North,0,0.0,0.0,59,0.00,,,0.00,WUHU216HW,2013-04-29 06:38:00,
2013-04-29 01:43:00,59.1,44.8,29.75,NNE,23,0.0,0.0,59,0.00,,,0.00,WUHU216HW,2013-04-29 06:43:00,
2013-04-29 01:48:00,59.1,44.8,29.76,North,0,0.0,0.0,59,0.00,,,0.00,WUHU216HW,2013-04-29 06:48:00,
2013-04-29 01:53:00,59.1,44.8,29.76,North,0,0.0,0.0,59,0.00,,,0.00,WUHU216HW,2013-04-29 06:53:00,
2013-04-29 01:58:00,59.0,44.6,29.75,North,0,0.0,0.0,59,0.00,,,0.00,WUHU216HW,2013-04-29 06:58:00,
2013-04-29 02:03:00,59.0,44.6,29.75,North,0,0.0,0.0,59,0.00,,,0.00,WUHU216HW,2013-04-29 07:03:00,
2013-04-29 02:09:00,59.0,44.6,29.75,North,0,0.0,0.0,59,0.00,,,0.00,WUHU216HW,2013-04-29 07:09:00,
2013-04-29 02:14:00,59.0,44.6,29.75,North,0,0.0,0.0,60,0.00,,,0.00,WUHU216HW,2013-04-29 07:14:00,
2013-04-29 02:19:00,59.0,44.6,29.75,North,0,0.0,0.0,59,0.00,,,0.00,WUHU216HW,2013-04-29 07:19:00,
2013-04-29 02:24:00,59.0,44.6,29.75,North,0,0.0,0.0,59,0.00,,,0.00,WUHU216HW,2013-04-29 07:24:00,
2013-04-29 02:29:00,59.0,44.6,29.75,North,0,0.0,0.0,59,0.00,,,0.00,WUHU216HW,2013-04-29 07:29:00,
2013-04-29 02:34:00,58.8,44.5,29.75,North,0,0.0,0.0,59,0.00,,,0.00,WUHU216HW,2013-04-29 07:34:00,
2013-04-29 02:39:00,58.6,44.3,29.74,North,0,0.0,0.0,59,0.00,,,0.00,WUHU216HW,2013-04-29 07:39:00,
2013-04-29 02:44:00,58.6,44.3,29.75,North,0,0.0,1.1,59,0.00,,,0.00,WUHU216HW,2013-04-29 07:44:00,
2013-04-29 02:49:00,58.2,44.0,29.74,North,0,0.0,1.1,59,0.00,,,0.00,WUHU216HW,2013-04-29 07:49:00,
2013-04-29 02:54:00,58.2,44.0,29.74,NNE,23,0.0,0.0,59,0.00,,,0.00,WUHU216HW,2013-04-29 07:54:00,
2013-04-29 02:59:00,58.2,44.0,29.73,NNE,23,0.0,0.0,59,0.00,,,0.00,WUHU216HW,2013-04-29 07:59:00,
2013-04-29 03:04:00,58.2,44.0,29.74,North,0,0.0,0.0,60,0.00,,,0.00,WUHU216HW,2013-04-29 08:04:00,
2013-04-29 03:09:00,58.1,44.3,29.74,North,0,2.9,2.9,60,0.00,,,0.00,WUHU216HW,2013-04-29 08:09:00,
2013-04-29 03:14:00,58.1,44.3,29.74,North,0,0.0,2.9,60,0.00,,,0.00,WUHU216HW,2013-04-29 08:14:00,
2013-04-29 03:19:00,58.1,44.3,29.75,North,0,0.2,6.7,60,0.00,,,0.00,WUHU216HW,2013-04-29 08:19:00,
2013-04-29 03:24:00,57.9,44.1,29.75,North,0,0.0,6.7,60,0.00,,,0.00,WUHU216HW,2013-04-29 08:24:00,
2013-04-29 03:29:00,57.9,44.1,29.75,North,0,1.5,3.3,60,0.00,,,0.00,WUHU216HW,2013-04-29 08:29:00,
2013-04-29 03:34:00,57.9,44.1,29.75,North,0,2.2,5.5,60,0.00,,,0.00,WUHU216HW,2013-04-29 08:34:00,
2013-04-29 03:40:00,57.9,44.1,29.76,NNW,338,0.0,5.5,60,0.00,,,0.00,WUHU216HW,2013-04-29 08:40:00,
2013-04-29 03:45:00,57.9,44.1,29.75,NNW,338,8.0,8.0,60,0.00,,,0.00,WUHU216HW,2013-04-29 08:45:00,
2013-04-29 03:50:00,57.9,44.1,29.74,North,0,2.6,8.2,60,0.00,,,0.00,WUHU216HW,2013-04-29 08:50:00,
2013-04-29 03:55:00,57.9,44.1,29.72,NNE,23,7.6,8.2,60,0.00,,,0.00,WUHU216HW,2013-04-29 08:55:00,
2013-04-29 04:00:00,57.7,44.0,29.73,NNW,338,7.3,8.2,60,0.00,,,0.00,WUHU216HW,2013-04-29 09:00:00,
2013-04-29 04:05:00,57.7,44.4,29.73,NNW,338,4.4,8.9,61,0.00,,,0.00,WUHU216HW,2013-04-29 09:05:00,
2013-04-29 04:10:00,57.7,44.4,29.73,NNE,23,1.1,8.9,61,0.00,,,0.00,WUHU216HW,2013-04-29 09:10:00,
2013-04-29 04:15:00,57.3,44.0,29.73,NNE,23,10.9,10.9,61,0.00,,,0.00,WUHU216HW,2013-04-29 09:15:00,
2013-04-29 04:20:00,57.2,44.3,29.75,North,0,5.1,10.9,62,0.00,,,0.00,WUHU216HW,2013-04-29 09:20:00,
2013-04-29 04:25:00,57.0,44.1,29.75,NNW,338,1.3,7.3,62,0.00,,,0.00,WUHU216HW,2013-04-29 09:25:00,
2013-04-29 04:30:00,57.0,44.5,29.76,North,0,4.6,5.3,63,0.00,,,0.00,WUHU216HW,2013-04-29 09:30:00,
2013-04-29 04:35:00,57.0,44.5,29.75,North,0,2.4,6.4,63,0.00,,,0.00,WUHU216HW,2013-04-29 09:35:00,
2013-04-29 04:40:00,56.8,44.3,29.75,North,0,0.0,6.4,63,0.00,,,0.00,WUHU216HW,2013-04-29 09:40:00,
2013-04-29 04:45:00,56.8,45.1,29.77,North,0,5.3,5.3,65,0.00,,,0.00,WUHU216HW,2013-04-29 09:45:00,
2013-04-29 04:50:00,56.8,45.1,29.77,NNW,338,1.5,5.3,65,0.00,,,0.00,WUHU216HW,2013-04-29 09:50:00,
2013-04-29 04:55:00,56.6,45.3,29.78,NW,315,3.3,5.1,66,0.00,,,0.00,WUHU216HW,2013-04-29 09:55:00,
2013-04-29 05:00:00,56.4,45.2,29.77,NNE,23,1.3,6.9,66,0.00,,,0.00,WUHU216HW,2013-04-29 10:00:00,
2013-04-29 05:06:00,56.4,45.6,29.76,North,0,1.1,6.9,67,0.00,,,0.00,WUHU216HW,2013-04-29 10:06:00,
2013-04-29 05:11:00,56.3,46.2,29.74,NNE,23,6.7,6.7,69,0.00,,,0.00,WUHU216HW,2013-04-29 10:11:00,
2013-04-29 05:16:00,56.1,46.1,29.73,NNW,338,3.5,6.7,69,0.00,,,0.00,WUHU216HW,2013-04-29 10:16:00,
2013-04-29 05:21:00,55.9,46.3,29.72,North,0,2.6,6.7,70,0.00,,,0.00,WUHU216HW,2013-04-29 10:21:00,
2013-04-29 05:26:00,55.5,46.0,29.73,North,0,4.6,8.2,70,0.00,,,0.00,WUHU216HW,2013-04-29 10:26:00,
2013-04-29 05:31:00,55.2,45.6,29.72,North,0,3.1,8.2,70,0.00,,,0.00,WUHU216HW,2013-04-29 10:31:00,
2013-04-29 05:36:00,55.0,45.8,29.73,NNW,338,4.4,6.4,71,0.00,,,0.00,WUHU216HW,2013-04-29 10:36:00,
2013-04-29 05:41:00,55.0,45.8,29.73,NNW,338,0.0,5.8,71,0.00,,,0.00,WUHU216HW,2013-04-29 10:41:00,
2013-04-29 05:46:00,54.6,45.8,29.73,North,0,0.0,5.3,72,0.00,,,0.00,WUHU216HW,2013-04-29 10:46:00,
2013-04-29 05:51:00,54.3,45.4,29.74,NNW,338,1.5,1.5,72,0.00,,,0.00,WUHU216HW,2013-04-29 10:51:00,
2013-04-29 05:56:00,54.1,45.3,29.74,North,0,0.0,2.9,72,0.00,,,0.00,WUHU216HW,2013-04-29 10:56:00,
2013-04-29 06:01:00,54.1,45.6,29.74,North,0,0.0,4.4,73,0.00,,,0.00,WUHU216HW,2013-04-29 11:01:00,
2013-04-29 06:06:00,53.7,45.6,29.74,NNW,338,5.3,5.3,74,0.00,,,0.00,WUHU216HW,2013-04-29 11:06:00,
2013-04-29 06:11:00,53.6,45.5,29.73,North,0,0.8,5.3,74,0.00,,,0.00,WUHU216HW,2013-04-29 11:11:00,
2013-04-29 06:16:00,53.4,45.3,29.74,North,0,0.0,5.3,74,0.00,,,0.00,WUHU216HW,2013-04-29 11:16:00,
2013-04-29 06:21:00,53.2,45.5,29.74,North,0,0.0,5.1,75,0.00,,,0.00,WUHU216HW,2013-04-29 11:21:00,
2013-04-29 06:26:00,52.8,45.1,29.75,North,0,0.0,5.1,75,0.00,,,0.00,WUHU216HW,2013-04-29 11:26:00,
2013-04-29 06:31:00,52.8,45.1,29.75,NNW,338,1.5,1.5,76,0.00,,,0.00,WUHU216HW,2013-04-29 11:31:00,
2013-04-29 06:37:00,52.7,45.3,29.75,NNE,23,2.4,6.4,76,0.00,,,0.00,WUHU216HW,2013-04-29 11:37:00,
2013-04-29 06:42:00,52.5,45.1,29.75,NW,315,0.0,6.4,76,0.00,,,0.00,WUHU216HW,2013-04-29 11:42:00,
2013-04-29 06:47:00,52.5,45.1,29.77,SSW,203,0.0,2.6,76,0.00,,,0.00,WUHU216HW,2013-04-29 11:47:00,
2013-04-29 06:52:00,52.5,45.1,29.77,NE,45,0.0,0.0,76,0.00,,,0.00,WUHU216HW,2013-04-29 11:52:00,
2013-04-29 06:57:00,52.5,45.1,29.78,NE,45,0.0,0.0,76,0.00,,,0.00,WUHU216HW,2013-04-29 11:57:00,
2013-04-29 07:02:00,52.3,45.3,29.77,North,0,3.1,4.4,77,0.00,,,0.00,WUHU216HW,2013-04-29 12:02:00,
2013-04-29 07:07:00,52.3,45.3,29.77,North,0,3.5,4.4,77,0.00,,,0.00,WUHU216HW,2013-04-29 12:07:00,
2013-04-29 07:12:00,52.3,45.3,29.77,NNE,23,0.0,3.5,77,0.00,,,0.00,WUHU216HW,2013-04-29 12:12:00,
2013-04-29 07:17:00,52.3,45.3,29.78,North,0,2.0,3.5,77,0.00,,,0.00,WUHU216HW,2013-04-29 12:17:00,
2013-04-29 07:22:00,52.5,45.5,29.78,North,0,0.0,3.5,77,0.00,,,0.00,WUHU216HW,2013-04-29 12:22:00,
2013-04-29 07:27:00,52.5,45.5,29.78,NE,45,0.0,4.0,77,0.00,,,0.00,WUHU216HW,2013-04-29 12:27:00,
2013-04-29 07:32:00,52.5,45.5,29.77,ENE,68,0.0,4.0,77,0.00,,,0.00,WUHU216HW,2013-04-29 12:32:00,
2013-04-29 07:37:00,52.5,45.5,29.76,NNE,23,0.0,0.0,77,0.00,,,0.00,WUHU216HW,2013-04-29 12:37:00,
2013-04-29 07:42:00,52.7,45.7,29.76,NNE,23,0.0,0.0,77,0.00,,,0.00,WUHU216HW,2013-04-29 12:42:00,
2013-04-29 07:47:00,52.7,45.7,29.78,South,180,0.0,0.0,77,0.00,,,0.00,WUHU216HW,2013-04-29 12:47:00,
2013-04-29 07:52:00,52.7,45.7,29.78,NNE,23,0.0,0.0,77,0.00,,,0.00,WUHU216HW,2013-04-29 12:52:00,
2013-04-29 07:57:00,52.8,45.8,29.77,North,0,4.2,4.2,77,0.00,,,0.00,WUHU216HW,2013-04-29 12:57:00,
2013-04-29 08:02:00,53.2,46.2,29.74,NE,45,3.1,7.8,77,0.00,,,0.00,WUHU216HW,2013-04-29 13:02:00,
2013-04-29 08:08:00,53.2,46.2,29.74,NNE,23,2.6,7.8,77,0.00,,,0.00,WUHU216HW,2013-04-29 13:08:00,
2013-04-29 08:13:00,53.2,46.2,29.76,North,0,0.0,6.0,77,0.00,,,0.00,WUHU216HW,2013-04-29 13:13:00,
2013-04-29 08:18:00,53.4,46.4,29.77,NNE,23,0.4,5.5,77,0.00,,,0.00,WUHU216HW,2013-04-29 13:18:00,
2013-04-29 08:23:00,53.7,46.7,29.77,NNE,23,0.0,1.1,77,0.00,,,0.00,WUHU216HW,2013-04-29 13:23:00,
2013-04-29 08:28:00,53.7,46.7,29.76,NNE,23,0.0,0.4,77,0.00,,,0.00,WUHU216HW,2013-04-29 13:28:00,
2013-04-29 08:33:00,53.7,46.7,29.78,South,180,0.0,0.0,77,0.00,,,0.00,WUHU216HW,2013-04-29 13:33:00,
2013-04-29 08:38:00,53.7,46.7,29.77,SE,135,0.0,0.0,77,0.00,,,0.00,WUHU216HW,2013-04-29 13:38:00,
2013-04-29 08:43:00,54.1,47.0,29.77,North,0,0.8,1.5,77,0.00,,,0.00,WUHU216HW,2013-04-29 13:43:00,
2013-04-29 08:48:00,54.1,47.0,29.77,ENE,68,0.0,1.5,77,0.00,,,0.00,WUHU216HW,2013-04-29 13:48:00,
2013-04-29 08:53:00,54.8,47.7,29.78,SSW,203,0.0,0.8,77,0.00,,,0.00,WUHU216HW,2013-04-29 13:53:00,
2013-04-29 08:58:00,55.2,48.0,29.79,NNW,338,0.0,0.0,77,0.00,,,0.00,WUHU216HW,2013-04-29 13:58:00,
2013-04-29 09:03:00,55.5,48.0,29.78,NNE,23,0.0,0.0,75,0.00,,,0.00,WUHU216HW,2013-04-29 14:03:00,
2013-04-29 09:08:00,55.9,48.0,29.80,South,180,0.0,0.0,75,0.00,,,0.00,WUHU216HW,2013-04-29 14:08:00,
2013-04-29 09:13:00,55.7,47.5,29.80,South,180,0.0,0.0,74,0.00,,,0.00,WUHU216HW,2013-04-29 14:13:00,
2013-04-29 09:18:00,55.7,47.9,29.79,ESE,113,0.0,0.0,75,0.00,,,0.00,WUHU216HW,2013-04-29 14:18:00,
2013-04-29 09:23:00,55.7,47.9,29.79,ESE,113,0.0,0.0,74,0.00,,,0.00,WUHU216HW,2013-04-29 14:23:00,
2013-04-29 09:28:00,55.9,47.7,29.78,East,90,2.0,2.0,74,0.00,,,0.00,WUHU216HW,2013-04-29 14:28:00,
2013-04-29 09:34:00,55.9,47.7,29.77,ESE,113,0.0,2.0,74,0.00,,,0.00,WUHU216HW,2013-04-29 14:34:00,
2013-04-29 09:39:00,56.3,48.0,29.75,NNE,23,0.0,2.0,74,0.00,,,0.00,WUHU216HW,2013-04-29 14:39:00,
2013-04-29 09:44:00,56.6,48.4,29.76,ENE,68,0.0,0.0,74,0.00,,,0.00,WUHU216HW,2013-04-29 14:44:00,
2013-04-29 09:49:00,57.2,48.5,29.77,SSE,158,0.0,0.0,73,0.00,,,0.00,WUHU216HW,2013-04-29 14:49:00,
2013-04-29 09:54:00,57.5,48.9,29.78,SSE,158,0.0,2.4,73,0.00,,,0.00,WUHU216HW,2013-04-29 14:54:00,
2013-04-29 09:59:00,57.9,48.9,29.78,West,270,0.0,2.4,72,0.00,,,0.00,WUHU216HW,2013-04-29 14:59:00,
2013-04-29 10:04:00,58.4,49.4,29.77,North,0,0.0,0.0,72,0.00,,,0.00,WUHU216HW,2013-04-29 15:04:00,
2013-04-29 10:09:00,59.0,50.0,29.75,ESE,113,0.0,0.0,72,0.00,,,0.00,WUHU216HW,2013-04-29 15:09:00,
2013-04-29 10:14:00,59.3,50.0,29.75,ENE,68,0.0,0.0,71,0.00,,,0.00,WUHU216HW,2013-04-29 15:14:00,
2013-04-29 10:19:00,60.0,50.3,29.75,East,90,0.0,0.0,70,0.00,,,0.00,WUHU216HW,2013-04-29 15:19:00,
2013-04-29 10:24:00,60.4,50.3,29.75,SE,135,0.0,2.6,69,0.00,,,0.00,WUHU216HW,2013-04-29 15:24:00,
2013-04-29 10:29:00,60.9,50.8,29.76,North,0,0.0,2.6,69,0.00,,,0.00,WUHU216HW,2013-04-29 15:29:00,
2013-04-29 10:34:00,62.2,51.5,29.75,North,0,0.0,0.0,68,0.00,,,0.00,WUHU216HW,2013-04-29 15:34:00,
2013-04-29 10:39:00,62.7,51.6,29.74,ENE,68,0.0,0.0,67,0.00,,,0.00,WUHU216HW,2013-04-29 15:39:00,
2013-04-29 10:44:00,62.9,51.3,29.73,ENE,68,3.1,3.1,66,0.00,,,0.00,WUHU216HW,2013-04-29 15:44:00,
2013-04-29 10:49:00,63.1,51.1,29.74,SSE,158,0.0,3.1,66,0.00,,,0.00,WUHU216HW,2013-04-29 15:49:00,
2013-04-29 10:54:00,63.1,51.1,29.74,SE,135,0.0,3.1,67,0.00,,,0.00,WUHU216HW,2013-04-29 15:54:00,
2013-04-29 11:00:00,63.3,52.1,29.74,East,90,2.0,2.0,65,0.00,,,0.00,WUHU216HW,2013-04-29 16:00:00,
2013-04-29 11:05:00,63.8,51.8,29.73,SE,135,0.0,2.0,65,0.00,,,0.00,WUHU216HW,2013-04-29 16:05:00,
2013-04-29 11:10:00,64.0,52.0,29.73,SSE,158,0.0,2.0,66,0.00,,,0.00,WUHU216HW,2013-04-29 16:10:00,
2013-04-29 11:15:00,64.2,52.1,29.72,SE,135,0.0,0.6,65,0.00,,,0.00,WUHU216HW,2013-04-29 16:15:00,
2013-04-29 11:20:00,64.9,52.0,29.73,East,90,0.0,0.6,63,0.00,,,0.00,WUHU216HW,2013-04-29 16:20:00,
2013-04-29 11:25:00,65.4,52.9,29.73,NE,45,0.0,0.0,64,0.00,,,0.00,WUHU216HW,2013-04-29 16:25:00,
2013-04-29 11:30:00,66.0,52.6,29.74,ENE,68,0.0,0.0,62,0.00,,,0.00,WUHU216HW,2013-04-29 16:30:00,
2013-04-29 11:35:00,66.7,53.3,29.74,ENE,68,0.0,0.0,62,0.00,,,0.00,WUHU216HW,2013-04-29 16:35:00,
2013-04-29 11:40:00,67.1,53.6,29.73,ENE,68,0.0,0.0,62,0.00,,,0.00,WUHU216HW,2013-04-29 16:40:00,
2013-04-29 11:45:00,67.8,53.8,29.73,East,90,0.0,0.0,61,0.00,,,0.00,WUHU216HW,2013-04-29 16:45:00,
2013-04-29 11:50:00,68.0,53.6,29.73,East,90,0.0,0.0,60,0.00,,,0.00,WUHU216HW,2013-04-29 16:50:00,
2013-04-29 11:55:00,68.5,54.1,29.73,NNE,23,0.0,0.0,60,0.00,,,0.00,WUHU216HW,2013-04-29 16:55:00,
2013-04-29 12:00:00,69.4,54.0,29.73,SE,135,0.0,0.0,58,0.00,,,0.00,WUHU216HW,2013-04-29 17:00:00,
2013-04-29 12:05:00,69.8,54.8,29.73,SE,135,0.0,0.0,59,0.00,,,0.00,WUHU216HW,2013-04-29 17:05:00,
2013-04-29 12:10:00,70.7,55.2,29.73,NE,45,0.0,0.0,58,0.00,,,0.00,WUHU216HW,2013-04-29 17:10:00,
2013-04-29 12:15:00,71.7,54.6,29.72,ESE,113,0.0,0.0,55,0.00,,,0.00,WUHU216HW,2013-04-29 17:15:00,
2013-04-29 12:20:00,71.7,54.6,29.72,SSE,158,0.0,0.0,55,0.00,,,0.00,WUHU216HW,2013-04-29 17:20:00,
2013-04-29 12:25:00,71.6,55.0,29.72,NNE,23,0.0,0.0,56,0.00,,,0.00,WUHU216HW,2013-04-29 17:25:00,
2013-04-29 12:31:00,73.7,54.9,29.72,North,0,0.0,0.0,52,0.00,,,0.00,WUHU216HW,2013-04-29 17:31:00,
2013-04-29 12:36:00,75.2,55.4,29.72,North,0,0.0,0.0,50,0.00,,,0.00,WUHU216HW,2013-04-29 17:36:00,
2013-04-29 12:41:00,76.2,56.3,29.71,NNE,23,0.0,0.2,50,0.00,,,0.00,WUHU216HW,2013-04-29 17:41:00,
2013-04-29 12:46:00,77.1,56.5,29.71,East,90,0.0,0.2,49,0.00,,,0.00,WUHU216HW,2013-04-29 17:46:00,
2013-04-29 12:51:00,77.1,54.7,29.71,SSE,158,0.0,0.0,46,0.00,,,0.00,WUHU216HW,2013-04-29 17:51:00,
2013-04-29 12:56:00,76.6,54.8,29.70,ENE,68,0.0,0.0,47,0.00,,,0.00,WUHU216HW,2013-04-29 17:56:00,
2013-04-29 13:01:00,77.1,56.5,29.70,ESE,113,0.0,0.0,46,0.00,,,0.00,WUHU216HW,2013-04-29 18:01:00,
2013-04-29 13:06:00,77.1,54.7,29.70,SE,135,0.0,0.0,46,0.00,,,0.00,WUHU216HW,2013-04-29 18:06:00,
2013-04-29 13:11:00,77.3,54.8,29.70,SE,135,0.0,0.4,45,0.00,,,0.00,WUHU216HW,2013-04-29 18:11:00,
2013-04-29 13:16:00,77.7,54.6,29.69,ESE,113,3.1,3.1,45,0.00,,,0.00,WUHU216HW,2013-04-29 18:16:00,
2013-04-29 13:21:00,78.0,54.9,29.69,NE,45,0.0,3.1,45,0.00,,,0.00,WUHU216HW,2013-04-29 18:21:00,
2013-04-29 13:26:00,78.6,54.8,29.69,SE,135,0.0,3.1,42,0.00,,,0.00,WUHU216HW,2013-04-29 18:26:00,
2013-04-29 13:31:00,78.6,54.8,29.68,ESE,113,0.0,0.0,43,0.00,,,0.00,WUHU216HW,2013-04-29 18:31:00,
2013-04-29 13:36:00,78.9,53.9,29.68,ESE,113,0.0,0.0,43,0.00,,,0.00,WUHU216HW,2013-04-29 18:36:00,
2013-04-29 13:41:00,79.8,54.1,29.67,South,180,0.0,0.0,41,0.00,,,0.00,WUHU216HW,2013-04-29 18:41:00,
2013-04-29 13:46:00,80.2,54.4,29.66,SSE,158,1.1,1.1,41,0.00,,,0.00,WUHU216HW,2013-04-29 18:46:00,
2013-04-29 13:51:00,80.2,53.0,29.67,ESE,113,1.5,6.0,39,0.00,,,0.00,WUHU216HW,2013-04-29 18:51:00,
2013-04-29 13:56:00,80.2,53.0,29.67,SSE,158,4.4,6.0,39,0.00,,,0.00,WUHU216HW,2013-04-29 18:56:00,
2013-04-29 14:02:00,80.2,52.2,29.67,South,180,4.4,4.4,38,0.00,,,0.00,WUHU216HW,2013-04-29 19:02:00,
2013-04-29 14:07:00,80.2,53.8,29.67,South,180,0.0,4.4,40,0.00,,,0.00,WUHU216HW,2013-04-29 19:07:00,
2013-04-29 14:12:00,80.7,55.5,29.65,SSW,203,0.0,4.4,42,0.00,,,0.00,WUHU216HW,2013-04-29 19:12:00,
2013-04-29 14:17:00,81.3,53.2,29.66,South,180,0.0,2.9,38,0.00,,,0.00,WUHU216HW,2013-04-29 19:17:00,
2013-04-29 14:22:00,82.0,52.2,29.65,South,180,0.0,2.9,36,0.00,,,0.00,WUHU216HW,2013-04-29 19:22:00,
2013-04-29 14:27:00,81.1,51.5,29.65,South,180,0.0,2.2,36,0.00,,,0.00,WUHU216HW,2013-04-29 19:27:00,
2013-04-29 14:32:00,81.3,54.0,29.64,South,180,0.0,2.2,39,0.00,,,0.00,WUHU216HW,2013-04-29 19:32:00,
2013-04-29 14:37:00,82.0,52.2,29.65,SSE,158,0.0,0.0,36,0.00,,,0.00,WUHU216HW,2013-04-29 19:37:00,
2013-04-29 14:42:00,82.0,52.2,29.65,South,180,0.0,1.3,36,0.00,,,0.00,WUHU216HW,2013-04-29 19:42:00,
2013-04-29 14:47:00,82.0,53.8,29.65,South,180,0.0,1.3,38,0.00,,,0.00,WUHU216HW,2013-04-29 19:47:00,
2013-04-29 14:52:00,82.0,52.2,29.65,South,180,0.8,7.1,36,0.00,,,0.00,WUHU216HW,2013-04-29 19:52:00,
2013-04-29 14:57:00,82.0,53.0,29.64,SSW,203,0.0,7.1,37,0.00,,,0.00,WUHU216HW,2013-04-29 19:57:00,
2013-04-29 15:02:00,83.1,52.4,29.64,WSW,248,0.0,0.8,35,0.00,,,0.00,WUHU216HW,2013-04-29 20:02:00,
2013-04-29 15:07:00,83.4,53.5,29.64,South,180,0.0,0.0,36,0.00,,,0.00,WUHU216HW,2013-04-29 20:07:00,
2013-04-29 15:12:00,82.7,51.3,29.63,South,180,2.0,2.6,34,0.00,,,0.00,WUHU216HW,2013-04-29 20:12:00,
2013-04-29 15:17:00,82.0,51.4,29.64,South,180,0.0,2.6,35,0.00,,,0.00,WUHU216HW,2013-04-29 20:17:00,
2013-04-29 15:22:00,82.0,51.4,29.64,SW,225,2.9,2.9,36,0.00,,,0.00,WUHU216HW,2013-04-29 20:22:00,
2013-04-29 15:28:00,81.6,52.7,29.64,South,180,0.0,6.0,37,0.00,,,0.00,WUHU216HW,2013-04-29 20:28:00,
2013-04-29 15:33:00,81.6,51.1,29.63,SSW,203,0.0,6.0,35,0.00,,,0.00,WUHU216HW,2013-04-29 20:33:00,
2013-04-29 15:38:00,82.0,53.0,29.63,SSE,158,4.4,5.1,37,0.00,,,0.00,WUHU216HW,2013-04-29 20:38:00,
2013-04-29 15:43:00,81.8,51.3,29.62,WSW,248,1.5,6.0,35,0.00,,,0.00,WUHU216HW,2013-04-29 20:43:00,
2013-04-29 15:48:00,82.2,48.4,29.62,South,180,0.0,6.0,31,0.00,,,0.00,WUHU216HW,2013-04-29 20:48:00,
2013-04-29 15:53:00,82.2,48.4,29.62,South,180,0.0,3.3,35,0.00,,,0.00,WUHU216HW,2013-04-29 20:53:00,
2013-04-29 15:58:00,82.2,51.6,29.62,SSE,158,5.5,5.5,35,0.00,,,0.00,WUHU216HW,2013-04-29 20:58:00,
2013-04-29 16:03:00,82.2,48.4,29.62,South,180,0.8,7.1,31,0.00,,,0.00,WUHU216HW,2013-04-29 21:03:00,
2013-04-29 16:08:00,82.2,48.4,29.61,SW,225,0.0,7.1,31,0.00,,,0.00,WUHU216HW,2013-04-29 21:08:00,
2013-04-29 16:13:00,82.5,51.1,29.61,SSW,203,0.0,0.8,34,0.00,,,0.00,WUHU216HW,2013-04-29 21:13:00,
2013-04-29 16:18:00,82.7,50.5,29.61,South,180,0.0,0.0,34,0.00,,,0.00,WUHU216HW,2013-04-29 21:18:00,
2013-04-29 16:23:00,82.9,52.2,29.61,SSE,158,0.0,6.2,35,0.00,,,0.00,WUHU216HW,2013-04-29 21:23:00,
2013-04-29 16:28:00,82.7,51.3,29.61,South,180,1.1,6.2,34,0.00,,,0.00,WUHU216HW,2013-04-29 21:28:00,
2013-04-29 16:33:00,82.5,50.3,29.61,South,180,7.1,7.8,33,0.00,,,0.00,WUHU216HW,2013-04-29 21:33:00,
2013-04-29 16:38:00,82.0,50.7,29.60,West,270,0.0,7.8,34,0.00,,,0.00,WUHU216HW,2013-04-29 21:38:00,
2013-04-29 16:43:00,82.0,50.7,29.60,South,180,0.0,7.1,35,0.00,,,0.00,WUHU216HW,2013-04-29 21:43:00,
2013-04-29 16:48:00,82.0,48.3,29.60,South,180,0.0,7.3,33,0.00,,,0.00,WUHU216HW,2013-04-29 21:48:00,
2013-04-29 16:54:00,81.6,48.8,29.60,South,180,0.0,7.3,34,0.00,,,0.00,WUHU216HW,2013-04-29 21:54:00,
2013-04-29 16:59:00,82.0,50.7,29.59,South,180,0.0,0.4,34,0.00,,,0.00,WUHU216HW,2013-04-29 21:59:00,
2013-04-29 17:04:00,82.0,49.9,29.59,South,180,2.9,6.7,33,0.00,,,0.00,WUHU216HW,2013-04-29 22:04:00,
2013-04-29 17:09:00,82.0,49.9,29.59,South,180,2.9,6.7,34,0.00,,,0.00,WUHU216HW,2013-04-29 22:09:00,
2013-04-29 17:14:00,81.5,51.0,29.59,South,180,0.6,2.9,35,0.00,,,0.00,WUHU216HW,2013-04-29 22:14:00,
2013-04-29 17:19:00,81.6,50.4,29.58,South,180,3.8,4.9,35,0.00,,,0.00,WUHU216HW,2013-04-29 22:19:00,
2013-04-29 17:24:00,81.8,49.7,29.58,South,180,2.0,4.9,33,0.00,,,0.00,WUHU216HW,2013-04-29 22:24:00,
2013-04-29 17:29:00,81.6,51.1,29.57,SE,135,0.0,3.8,35,0.00,,,0.00,WUHU216HW,2013-04-29 22:29:00,
2013-04-29 17:34:00,81.6,50.4,29.57,South,180,0.0,2.0,34,0.00,,,0.00,WUHU216HW,2013-04-29 22:34:00,
2013-04-29 17:39:00,81.5,51.0,29.57,South,180,0.0,0.0,35,0.00,,,0.00,WUHU216HW,2013-04-29 22:39:00,
2013-04-29 17:44:00,81.5,51.0,29.57,SSE,158,0.0,0.0,36,0.00,,,0.00,WUHU216HW,2013-04-29 22:44:00,
2013-04-29 17:49:00,81.3,50.1,29.57,SSE,158,0.0,6.2,34,0.00,,,0.00,WUHU216HW,2013-04-29 22:49:00,
2013-04-29 17:54:00,81.3,50.1,29.57,South,180,0.0,6.2,35,0.00,,,0.00,WUHU216HW,2013-04-29 22:54:00,
2013-04-29 17:59:00,81.3,50.8,29.57,SSE,158,2.4,7.3,35,0.00,,,0.00,WUHU216HW,2013-04-29 22:59:00,
2013-04-29 18:04:00,81.3,50.8,29.57,SE,135,0.6,7.3,35,0.00,,,0.00,WUHU216HW,2013-04-29 23:04:00,
2013-04-29 18:09:00,81.1,50.7,29.56,SSE,158,0.0,5.1,35,0.00,,,0.00,WUHU216HW,2013-04-29 23:09:00,
2013-04-29 18:14:00,81.1,49.9,29.57,South,180,0.2,8.2,34,0.00,,,0.00,WUHU216HW,2013-04-29 23:14:00,
2013-04-29 18:19:00,80.9,49.8,29.56,SSE,158,1.1,8.2,34,0.00,,,0.00,WUHU216HW,2013-04-29 23:19:00,
2013-04-29 18:25:00,80.9,50.5,29.56,SSE,158,6.4,6.4,35,0.00,,,0.00,WUHU216HW,2013-04-29 23:25:00,
2013-04-29 18:30:00,80.9,49.8,29.55,SSE,158,1.7,6.4,34,0.00,,,0.00,WUHU216HW,2013-04-29 23:30:00,
2013-04-29 18:35:00,80.7,49.6,29.55,South,180,2.9,4.6,34,0.00,,,0.00,WUHU216HW,2013-04-29 23:35:00,
2013-04-29 18:40:00,80.7,50.4,29.55,South,180,3.5,3.5,35,0.00,,,0.00,WUHU216HW,2013-04-29 23:40:00,
2013-04-29 18:45:00,80.9,50.5,29.55,SSE,158,0.0,7.6,36,0.00,,,0.00,WUHU216HW,2013-04-29 23:45:00,
2013-04-29 18:50:00,80.7,51.2,29.54,SSE,158,0.0,7.6,36,0.00,,,0.00,WUHU216HW,2013-04-29 23:50:00,
2013-04-29 18:55:00,80.7,51.2,29.55,South,180,0.0,4.4,37,0.00,,,0.00,WUHU216HW,2013-04-29 23:55:00,
2013-04-29 19:00:00,80.7,51.9,29.55,South,180,5.1,6.4,37,0.00,,,0.00,WUHU216HW,2013-04-30 00:00:00,
2013-04-29 19:05:00,80.7,51.9,29.55,SSE,158,0.0,6.4,38,0.00,,,0.00,WUHU216HW,2013-04-30 00:05:00,
2013-04-29 19:10:00,80.7,51.9,29.55,SSE,158,2.4,5.1,37,0.00,,,0.00,WUHU216HW,2013-04-30 00:10:00,
2013-04-29 19:15:00,80.7,51.9,29.55,SSE,158,0.2,7.1,37,0.00,,,0.00,WUHU216HW,2013-04-30 00:15:00,
2013-04-29 19:20:00,80.2,52.2,29.55,SSE,158,0.0,7.1,38,0.00,,,0.00,WUHU216HW,2013-04-30 00:20:00,
2013-04-29 19:25:00,80.2,52.2,29.54,SSE,158,0.0,0.4,39,0.00,,,0.00,WUHU216HW,2013-04-30 00:25:00,
2013-04-29 19:30:00,79.7,52.5,29.54,South,180,0.0,0.0,39,0.00,,,0.00,WUHU216HW,2013-04-30 00:30:00,
2013-04-29 19:35:00,79.3,52.2,29.55,SSE,158,0.0,0.0,39,0.00,,,0.00,WUHU216HW,2013-04-30 00:35:00,
2013-04-29 19:40:00,79.1,52.0,29.55,SSE,158,0.0,0.0,39,0.00,,,0.00,WUHU216HW,2013-04-30 00:40:00,
2013-04-29 19:45:00,78.8,52.5,29.55,SSE,158,0.0,0.0,40,0.00,,,0.00,WUHU216HW,2013-04-30 00:45:00,
2013-04-29 19:51:00,78.6,52.3,29.55,SSE,158,0.0,0.0,41,0.00,,,0.00,WUHU216HW,2013-04-30 00:51:00,
2013-04-29 19:56:00,78.0,52.4,29.54,SSE,158,0.0,0.0,41,0.00,,,0.00,WUHU216HW,2013-04-30 00:56:00,
2013-04-29 20:01:00,77.5,52.6,29.54,SSE,158,0.0,0.0,42,0.00,,,0.00,WUHU216HW,2013-04-30 01:01:00,
2013-04-29 20:06:00,76.8,52.5,29.54,SSE,158,0.0,0.0,43,0.00,,,0.00,WUHU216HW,2013-04-30 01:06:00,
2013-04-29 20:11:00,76.2,52.7,29.54,SSE,158,0.0,0.0,44,0.00,,,0.00,WUHU216HW,2013-04-30 01:11:00,
2013-04-29 20:16:00,75.7,52.2,29.54,SSE,158,0.0,0.0,44,0.00,,,0.00,WUHU216HW,2013-04-30 01:16:00,
2013-04-29 20:21:00,75.3,51.8,29.55,SSE,158,0.0,0.0,44,0.00,,,0.00,WUHU216HW,2013-04-30 01:21:00,
2013-04-29 20:26:00,75.0,52.1,29.55,SSE,158,0.0,0.0,45,0.00,,,0.00,WUHU216HW,2013-04-30 01:26:00,
2013-04-29 20:31:00,74.3,51.4,29.55,SSE,158,0.0,0.0,45,0.00,,,0.00,WUHU216HW,2013-04-30 01:31:00,
2013-04-29 20:36:00,73.9,51.1,29.55,SSE,158,0.0,0.0,45,0.00,,,0.00,WUHU216HW,2013-04-30 01:36:00,
2013-04-29 20:41:00,73.5,50.8,29.55,SSE,158,0.0,0.0,45,0.00,,,0.00,WUHU216HW,2013-04-30 01:41:00,
2013-04-29 20:46:00,72.6,50.5,29.55,SSE,158,0.0,0.0,46,0.00,,,0.00,WUHU216HW,2013-04-30 01:46:00,
2013-04-29 20:51:00,72.3,50.8,29.55,SSE,158,0.0,0.0,47,0.00,,,0.00,WUHU216HW,2013-04-30 01:51:00,
2013-04-29 20:56:00,71.9,51.7,29.56,SSE,158,0.0,0.0,49,0.00,,,0.00,WUHU216HW,2013-04-30 01:56:00,
2013-04-29 21:01:00,71.2,51.6,29.55,SSE,158,0.0,0.0,50,0.00,,,0.00,WUHU216HW,2013-04-30 02:01:00,
2013-04-29 21:06:00,70.5,51.5,29.55,SSE,158,0.0,0.0,51,0.00,,,0.00,WUHU216HW,2013-04-30 02:06:00,
2013-04-29 21:11:00,69.9,51.0,29.55,SSE,158,0.0,0.0,51,0.00,,,0.00,WUHU216HW,2013-04-30 02:11:00,
2013-04-29 21:16:00,69.2,50.8,29.55,SSE,158,0.0,0.0,52,0.00,,,0.00,WUHU216HW,2013-04-30 02:16:00,
2013-04-29 21:22:00,68.7,50.3,29.55,SSE,158,0.0,0.0,52,0.00,,,0.00,WUHU216HW,2013-04-30 02:22:00,
2013-04-29 21:27:00,67.8,50.5,29.54,SSE,158,0.0,0.0,54,0.00,,,0.00,WUHU216HW,2013-04-30 02:27:00,
2013-04-29 21:32:00,67.1,49.8,29.54,SSE,158,0.0,0.0,54,0.00,,,0.00,WUHU216HW,2013-04-30 02:32:00,
2013-04-29 21:37:00,66.7,50.5,29.55,SSE,158,0.0,0.0,56,0.00,,,0.00,WUHU216HW,2013-04-30 02:37:00,
2013-04-29 21:42:00,66.2,49.5,29.55,SSE,158,0.0,0.0,55,0.00,,,0.00,WUHU216HW,2013-04-30 02:42:00,
2013-04-29 21:47:00,65.8,49.1,29.54,SSE,158,0.0,0.0,55,0.00,,,0.00,WUHU216HW,2013-04-30 02:47:00,
2013-04-29 21:52:00,65.8,49.1,29.54,SSE,158,0.0,0.0,56,0.00,,,0.00,WUHU216HW,2013-04-30 02:52:00,
2013-04-29 21:57:00,65.4,49.3,29.54,SSE,158,0.0,0.0,56,0.00,,,0.00,WUHU216HW,2013-04-30 02:57:00,
2013-04-29 22:02:00,65.3,49.6,29.54,SSE,158,0.0,0.0,57,0.00,,,0.00,WUHU216HW,2013-04-30 03:02:00,
2013-04-29 22:07:00,64.9,49.7,29.54,SSE,158,0.0,0.0,58,0.00,,,0.00,WUHU216HW,2013-04-30 03:07:00,
2013-04-29 22:12:00,64.4,49.2,29.53,SSE,158,0.0,0.0,58,0.00,,,0.00,WUHU216HW,2013-04-30 03:12:00,
2013-04-29 22:17:00,64.0,49.3,29.53,SSE,158,0.0,0.0,59,0.00,,,0.00,WUHU216HW,2013-04-30 03:17:00,
2013-04-29 22:22:00,64.0,49.3,29.53,SSE,158,0.0,0.0,60,0.00,,,0.00,WUHU216HW,2013-04-30 03:22:00,
2013-04-29 22:27:00,63.6,49.9,29.53,South,180,0.0,0.0,61,0.00,,,0.00,WUHU216HW,2013-04-30 03:27:00,
2013-04-29 22:32:00,63.8,50.5,29.53,South,180,0.0,0.0,62,0.00,,,0.00,WUHU216HW,2013-04-30 03:32:00,
2013-04-29 22:37:00,64.2,50.8,29.54,South,180,0.0,0.0,62,0.00,,,0.00,WUHU216HW,2013-04-30 03:37:00,
2013-04-29 22:42:00,64.5,51.2,29.54,South,180,0.0,0.0,62,0.00,,,0.00,WUHU216HW,2013-04-30 03:42:00,
2013-04-29 22:48:00,64.5,51.2,29.53,South,180,0.0,0.0,61,0.00,,,0.00,WUHU216HW,2013-04-30 03:48:00,
2013-04-29 22:53:00,64.7,50.9,29.53,South,180,0.0,0.0,61,0.00,,,0.00,WUHU216HW,2013-04-30 03:53:00,
2013-04-29 22:58:00,64.9,51.1,29.52,South,180,0.0,0.0,61,0.00,,,0.00,WUHU216HW,2013-04-30 03:58:00,
2013-04-29 23:03:00,64.9,51.1,29.52,South,180,0.0,0.0,61,0.00,,,0.00,WUHU216HW,2013-04-30 04:03:00,
2013-04-29 23:08:00,64.9,51.1,29.52,South,180,0.0,0.0,61,0.00,,,0.00,WUHU216HW,2013-04-30 04:08:00,
2013-04-29 23:13:00,64.7,50.9,29.52,South,180,0.0,0.0,62,0.00,,,0.00,WUHU216HW,2013-04-30 04:13:00,
2013-04-29 23:18:00,64.5,51.2,29.52,South,180,0.0,0.0,62,0.00,,,0.00,WUHU216HW,2013-04-30 04:18:00,
2013-04-29 23:23:00,64.5,51.2,29.52,South,180,0.0,0.0,62,0.00,,,0.00,WUHU216HW,2013-04-30 04:23:00,
2013-04-29 23:28:00,64.2,51.3,29.52,South,180,0.0,0.0,63,0.00,,,0.00,WUHU216HW,2013-04-30 04:28:00,
2013-04-29 23:33:00,64.0,51.1,29.51,South,180,0.0,0.0,63,0.00,,,0.00,WUHU216HW,2013-04-30 04:33:00,
2013-04-29 23:38:00,63.6,51.2,29.51,South,180,0.0,0.0,64,0.00,,,0.00,WUHU216HW,2013-04-30 04:38:00,
2013-04-29 23:43:00,63.3,50.8,29.50,South,180,0.0,0.0,64,0.00,,,0.00,WUHU216HW,2013-04-30 04:43:00,
2013-04-29 23:48:00,63.3,50.8,29.50,South,180,0.0,0.0,65,0.00,,,0.00,WUHU216HW,2013-04-30 04:48:00,
2013-04-29 23:53:00,63.1,51.5,29.50,South,180,0.0,0.0,66,0.00,,,0.00,WUHU216HW,2013-04-30 04:53:00,
2013-04-29 23:58:00,63.1,51.5,29.50,South,180,0.0,0.0,66,0.00,,,0.00,WUHU216HW,2013-04-30 04:58:00,